Weather in Zhilino

Russia / Voronezh Oblast     49°53′18″N   39°24′39″E
temp.,
°C
wind,
m/s
gust,
m/s
humid.,
%
clouds,
%
prec.,
mm/h
press.,
hPa
HPBL,
m
1 august, sun
sun100:00+24n235075 0.0 101167
03:00+22n235477 0.0 101273
06:00+22ne225872 0.0 101259
09:00+25ene235577 0.0 1013255
12:00+30se224126 0.0 10121353
15:00+32sw213548 0.0 10111872
18:00+31n22360 0.0 1011937
21:00+26e23504 0.0 101227
2 august, mon
mon200:00+24sse11570 0.0 101111
03:00+22sse11625 0.0 101211
06:00+23wsw00615 0.0 101211
09:00+30s22425 0.0 1012526
12:00+34ssw36311 0.0 10112340
15:00+35wsw572411 0.0 10093658
18:00+33w56315 0.0 1008978
21:00+27se224246 0.0 100812
3 august, tue
tue300:00+25w224923 0.0 100917
03:00+20nne2375100 0.1 101054
06:00+21nnw3472100 0.0 101094
09:00+30ssw573960 0.0 1009481
12:00+32w563711 0.0 10091525
15:00+32w563997 0.0 10092087
18:00+28nw575669 0.7 1009818
21:00+22nw48745 1.6 1011159
4 august, wed
wed400:00+18nnw310775 0.1 1014249
03:00+17nnw37760 0.1 1014138
06:00+17nnw35730 0.0 1016119
09:00+23nnw45530 0.0 1017867
12:00+26nnw55380 0.0 10171993
15:00+28nnw453096 0.0 10162480
18:00+27nw443125 0.0 10162480
21:00+21nw334481 0.0 101723
5 august, thu
thu500:00+18n36550 0.0 1018105
03:00+17n34612 0.0 101949
06:00+18n23604 0.0 101956
09:00+24n323823 0.0 1019627
12:00+27nnw3330100 0.0 10181848
15:00+28nnw33285 0.0 10171990
18:00+28nnw32315 0.0 10161708
21:00+22nne22435 0.0 101611